CPA902 RPLL-VHHH

Flight info

Callsign CPA902
Flight time 1h 37m
Altitude 38000
Route CAB2R CAB A461 NOMAN V533 BETTY
Aircraft B77W/H-SDE1E2E3FGHIJ2J3J4J5M1RWXY/LB1D1

Departure

Time 2026-05-06 13:10
Airport Ninoy Aquino International Airport (RPLL)

Arrival

Time 2026-05-06 14:48
Airport Hong Kong International Airport (VHHH)
Time Latitude Longitude Altitude Speed Heading
2026-05-06 12:31 14.51800 121.01369 44 ft 0 kts 44°
2026-05-06 12:52 14.51799 121.01368 44 ft 0 kts 44°
2026-05-06 12:52 14.51798 121.01367 44 ft 0 kts 44°
2026-05-06 12:52 14.51797 121.01366 44 ft 0 kts 44°
2026-05-06 12:53 14.51795 121.01364 44 ft 3 kts 44°
2026-05-06 12:53 14.51782 121.01351 41 ft 3 kts 47°
2026-05-06 12:54 14.51771 121.01336 41 ft 3 kts 63°
2026-05-06 12:54 14.51766 121.01325 39 ft 3 kts 73°
2026-05-06 12:54 14.51763 121.01302 38 ft 3 kts 94°
2026-05-06 12:54 14.51765 121.01285 42 ft 3 kts 109°
2026-05-06 12:55 14.51773 121.01268 43 ft 3 kts 124°
2026-05-06 12:55 14.51777 121.01261 42 ft 0 kts 132°
2026-05-06 12:59 14.51777 121.01262 42 ft 1 kts 132°
2026-05-06 12:59 14.51767 121.01273 41 ft 4 kts 132°
2026-05-06 12:59 14.51744 121.01299 41 ft 6 kts 133°
2026-05-06 12:59 14.51713 121.01333 43 ft 7 kts 133°
2026-05-06 13:00 14.51676 121.01373 42 ft 8 kts 135°
2026-05-06 13:00 14.51631 121.01419 42 ft 10 kts 135°
2026-05-06 13:00 14.51580 121.01471 41 ft 11 kts 135°
2026-05-06 13:00 14.51524 121.01528 40 ft 12 kts 137°
2026-05-06 13:01 14.51461 121.01589 39 ft 13 kts 136°
2026-05-06 13:01 14.51397 121.01652 38 ft 13 kts 136°
2026-05-06 13:01 14.51334 121.01718 36 ft 13 kts 135°
2026-05-06 13:01 14.51272 121.01782 37 ft 13 kts 135°
2026-05-06 13:02 14.51210 121.01848 37 ft 13 kts 134°
2026-05-06 13:02 14.51167 121.01892 37 ft 6 kts 135°
2026-05-06 13:02 14.51134 121.01925 38 ft 6 kts 136°
2026-05-06 13:02 14.51101 121.01957 39 ft 6 kts 136°
2026-05-06 13:03 14.51062 121.01975 40 ft 7 kts 179°
2026-05-06 13:03 14.51024 121.01947 40 ft 8 kts 236°
2026-05-06 13:03 14.50984 121.01882 35 ft 14 kts 239°
2026-05-06 13:03 14.50931 121.01790 34 ft 15 kts 239°
2026-05-06 13:04 14.50877 121.01694 43 ft 15 kts 240°
2026-05-06 13:04 14.50824 121.01598 50 ft 15 kts 240°
2026-05-06 13:04 14.50770 121.01502 47 ft 15 kts 240°
2026-05-06 13:04 14.50718 121.01406 49 ft 15 kts 241°
2026-05-06 13:05 14.50665 121.01310 51 ft 15 kts 240°
2026-05-06 13:05 14.50612 121.01213 62 ft 15 kts 240°
2026-05-06 13:05 14.50558 121.01118 57 ft 15 kts 239°
2026-05-06 13:05 14.50503 121.01022 57 ft 15 kts 239°
2026-05-06 13:06 14.50450 121.00926 60 ft 15 kts 242°
2026-05-06 13:06 14.50398 121.00829 62 ft 15 kts 239°
2026-05-06 13:06 14.50343 121.00734 63 ft 15 kts 239°
2026-05-06 13:06 14.50289 121.00638 63 ft 15 kts 239°
2026-05-06 13:07 14.50234 121.00538 69 ft 17 kts 240°
2026-05-06 13:07 14.50177 121.00434 68 ft 17 kts 240°
2026-05-06 13:07 14.50120 121.00329 85 ft 17 kts 240°
2026-05-06 13:07 14.50062 121.00226 84 ft 17 kts 240°
2026-05-06 13:08 14.50005 121.00123 88 ft 17 kts 240°
2026-05-06 13:08 14.49952 121.00030 91 ft 11 kts 240°
2026-05-06 13:08 14.49910 120.99972 91 ft 10 kts 209°
2026-05-06 13:08 14.49845 120.99985 92 ft 10 kts 149°
2026-05-06 13:09 14.49807 121.00038 92 ft 10 kts 86°
2026-05-06 13:09 14.49824 121.00077 89 ft 0 kts 60°
2026-05-06 13:09 14.49857 121.00136 91 ft 27 kts 60°
2026-05-06 13:09 14.50084 121.00545 64 ft 108 kts 60°
2026-05-06 13:10 14.50582 121.01451 56 ft 178 kts 59°
2026-05-06 13:10 14.51269 121.02625 572 ft 190 kts 62°
2026-05-06 13:10 14.51915 121.03760 1618 ft 180 kts 62°
2026-05-06 13:10 14.52544 121.04906 2332 ft 189 kts 62°
2026-05-06 13:11 14.53231 121.06176 2646 ft 218 kts 61°
2026-05-06 13:11 14.54022 121.07618 3084 ft 240 kts 61°
2026-05-06 13:11 14.54817 121.09054 3682 ft 254 kts 60°
2026-05-06 13:11 14.55713 121.10662 4475 ft 263 kts 60°
2026-05-06 13:12 14.56753 121.12242 5195 ft 270 kts 44°
2026-05-06 13:12 14.58361 121.13234 6154 ft 273 kts 19°
2026-05-06 13:12 14.60249 121.13508 6940 ft 278 kts
2026-05-06 13:12 14.62211 121.13498 7722 ft 283 kts
2026-05-06 13:13 14.64181 121.13487 8644 ft 284 kts
2026-05-06 13:13 14.66174 121.13486 9475 ft 289 kts
2026-05-06 13:13 14.68197 121.13494 10265 ft 293 kts
2026-05-06 13:13 14.70299 121.13448 10621 ft 314 kts 354°
2026-05-06 13:14 14.72500 121.12807 10816 ft 344 kts 342°
2026-05-06 13:14 14.74796 121.11929 11170 ft 364 kts 341°
2026-05-06 13:14 14.77212 121.11007 11798 ft 375 kts 342°
2026-05-06 13:14 14.79681 121.10085 11924 ft 380 kts 342°
2026-05-06 13:15 14.82176 121.09173 11926 ft 380 kts 342°
2026-05-06 13:15 14.84669 121.08274 11919 ft 378 kts 342°
2026-05-06 13:15 14.87154 121.07382 11925 ft 377 kts 342°
2026-05-06 13:15 14.89631 121.06524 11922 ft 372 kts 347°
2026-05-06 13:16 14.92189 121.06141 12292 ft 376 kts 358°
2026-05-06 13:16 14.94824 121.05994 13125 ft 382 kts 359°
2026-05-06 13:16 14.97494 121.05858 14012 ft 386 kts 359°
2026-05-06 13:16 15.00201 121.05711 14827 ft 390 kts 358°
2026-05-06 13:17 15.02928 121.05548 15654 ft 394 kts 358°
2026-05-06 13:17 15.05676 121.05372 16323 ft 397 kts 357°
2026-05-06 13:17 15.08422 121.05187 16913 ft 401 kts 357°
2026-05-06 13:17 15.11258 121.04991 17528 ft 405 kts 356°
2026-05-06 13:18 15.14051 121.04796 18122 ft 409 kts 356°
2026-05-06 13:18 15.16911 121.04595 18668 ft 412 kts 356°
2026-05-06 13:18 15.19785 121.04393 19166 ft 416 kts 356°
2026-05-06 13:18 15.22691 121.04189 19678 ft 419 kts 356°
2026-05-06 13:19 15.25608 121.03984 20201 ft 422 kts 356°
2026-05-06 13:19 15.28549 121.03778 20717 ft 425 kts 356°
2026-05-06 13:19 15.31519 121.03570 21162 ft 430 kts 356°
2026-05-06 13:19 15.34518 121.03360 21646 ft 434 kts 356°
2026-05-06 13:20 15.37540 121.03148 22134 ft 437 kts 356°
2026-05-06 13:20 15.40582 121.02935 22627 ft 440 kts 356°
2026-05-06 13:20 15.43605 121.02723 23128 ft 442 kts 355°
2026-05-06 13:20 15.46681 121.02497 23573 ft 443 kts 354°
2026-05-06 13:21 15.49704 121.01805 23838 ft 448 kts 337°
2026-05-06 13:21 15.52493 121.00376 24137 ft 449 kts 332°
2026-05-06 13:21 15.55256 120.98844 24477 ft 452 kts 331°
2026-05-06 13:21 15.58040 120.97292 24889 ft 454 kts 331°
2026-05-06 13:22 15.60833 120.95751 25315 ft 456 kts 332°
2026-05-06 13:22 15.63649 120.94217 25704 ft 458 kts 332°
2026-05-06 13:22 15.66497 120.92683 26071 ft 461 kts 332°
2026-05-06 13:22 15.69359 120.91153 26437 ft 464 kts 332°
2026-05-06 13:23 15.72249 120.89615 26809 ft 467 kts 332°
2026-05-06 13:23 15.75152 120.88072 27187 ft 469 kts 332°
2026-05-06 13:23 15.78068 120.86521 27568 ft 472 kts 332°
2026-05-06 13:23 15.80998 120.84963 27917 ft 474 kts 332°
2026-05-06 13:24 15.83904 120.83415 28253 ft 477 kts 332°
2026-05-06 13:24 15.86864 120.81839 28610 ft 479 kts 332°
2026-05-06 13:24 15.89877 120.80232 28949 ft 481 kts 332°
2026-05-06 13:24 15.92824 120.78661 29276 ft 484 kts 332°
2026-05-06 13:25 15.95825 120.77059 29599 ft 486 kts 332°
2026-05-06 13:25 15.98841 120.75450 29918 ft 488 kts 332°
2026-05-06 13:25 16.01872 120.73831 30187 ft 491 kts 332°
2026-05-06 13:25 16.04917 120.72206 30443 ft 492 kts 332°
2026-05-06 13:26 16.07975 120.70572 30721 ft 493 kts 332°
2026-05-06 13:26 16.11035 120.68937 30970 ft 494 kts 332°
2026-05-06 13:26 16.14094 120.67301 31227 ft 495 kts 332°
2026-05-06 13:26 16.17157 120.65663 31483 ft 496 kts 332°
2026-05-06 13:27 16.20224 120.64023 31768 ft 495 kts 332°
2026-05-06 13:27 16.23291 120.62381 32084 ft 494 kts 332°
2026-05-06 13:27 16.26347 120.60745 32395 ft 493 kts 332°
2026-05-06 13:27 16.29350 120.59137 32692 ft 492 kts 332°
2026-05-06 13:28 16.32395 120.57506 32966 ft 491 kts 332°
2026-05-06 13:28 16.35426 120.55881 33260 ft 490 kts 332°
2026-05-06 13:28 16.38494 120.54236 33539 ft 489 kts 332°
2026-05-06 13:28 16.41484 120.52632 33814 ft 489 kts 332°
2026-05-06 13:29 16.44504 120.51012 34080 ft 488 kts 332°
2026-05-06 13:29 16.47520 120.49394 34328 ft 487 kts 332°
2026-05-06 13:29 16.50532 120.47777 34575 ft 487 kts 332°
2026-05-06 13:29 16.53539 120.46161 34821 ft 486 kts 332°
2026-05-06 13:30 16.56540 120.44549 35074 ft 485 kts 332°
2026-05-06 13:30 16.59534 120.42939 35298 ft 484 kts 332°
2026-05-06 13:30 16.62526 120.41330 35525 ft 484 kts 332°
2026-05-06 13:30 16.65523 120.39718 35757 ft 483 kts 332°
2026-05-06 13:31 16.68503 120.38108 35987 ft 482 kts 330°
2026-05-06 13:31 16.71329 120.36306 36183 ft 481 kts 324°
2026-05-06 13:31 16.73996 120.34216 36389 ft 479 kts 320°
2026-05-06 13:31 16.76480 120.31900 36589 ft 478 kts 314°
2026-05-06 13:32 16.78787 120.29409 36784 ft 477 kts 313°
2026-05-06 13:32 16.81065 120.26887 36989 ft 477 kts 312°
2026-05-06 13:32 16.83329 120.24360 37200 ft 476 kts 312°
2026-05-06 13:32 16.85589 120.21842 37406 ft 475 kts 312°
2026-05-06 13:33 16.87850 120.19335 37611 ft 474 kts 312°
2026-05-06 13:33 16.90116 120.16833 37806 ft 474 kts 312°
2026-05-06 13:33 16.92387 120.14333 37846 ft 475 kts 313°
2026-05-06 13:34 16.96941 120.09332 37906 ft 474 kts 313°
2026-05-06 13:34 17.01467 120.04362 37910 ft 471 kts 312°
2026-05-06 13:35 17.05970 119.99412 37918 ft 469 kts 312°
2026-05-06 13:35 17.10428 119.94505 37919 ft 468 kts 312°
2026-05-06 13:36 17.14906 119.89573 37923 ft 467 kts 312°
2026-05-06 13:36 17.19380 119.84640 37921 ft 468 kts 312°
2026-05-06 13:37 17.23860 119.79698 37923 ft 468 kts 312°
2026-05-06 13:37 17.28345 119.74747 37923 ft 469 kts 312°
2026-05-06 13:38 17.32840 119.69781 37918 ft 470 kts 312°
2026-05-06 13:38 17.37335 119.64811 37923 ft 470 kts 312°
2026-05-06 13:39 17.41830 119.59837 37923 ft 470 kts 312°
2026-05-06 13:39 17.46299 119.54889 37926 ft 470 kts 312°
2026-05-06 13:40 17.50795 119.49907 37927 ft 470 kts 312°
2026-05-06 13:40 17.55286 119.44926 37928 ft 470 kts 312°
2026-05-06 13:41 17.59770 119.39949 37927 ft 469 kts 312°
2026-05-06 13:41 17.64250 119.34973 37926 ft 469 kts 312°
2026-05-06 13:42 17.68724 119.29999 37927 ft 468 kts 312°
2026-05-06 13:42 17.73193 119.25028 37932 ft 468 kts 312°
2026-05-06 13:43 17.77663 119.20050 37932 ft 468 kts 312°
2026-05-06 13:43 17.82101 119.15106 37935 ft 468 kts 312°
2026-05-06 13:44 17.86568 119.10124 37938 ft 468 kts 312°
2026-05-06 13:44 17.91035 119.05138 37937 ft 469 kts 312°
2026-05-06 13:45 17.95502 119.00147 37937 ft 469 kts 312°
2026-05-06 13:45 18.01447 118.93503 37935 ft 469 kts 312°
2026-05-06 13:46 18.05918 118.88504 37933 ft 469 kts 312°
2026-05-06 13:46 18.10388 118.83502 37937 ft 469 kts 312°
2026-05-06 13:47 18.14858 118.78493 37936 ft 469 kts 312°
2026-05-06 13:47 18.19291 118.73522 37938 ft 469 kts 312°
2026-05-06 13:48 18.23749 118.68520 37941 ft 468 kts 312°
2026-05-06 13:48 18.28208 118.63511 37947 ft 468 kts 312°
2026-05-06 13:49 18.32661 118.58506 37939 ft 468 kts 312°
2026-05-06 13:49 18.37108 118.53503 37939 ft 468 kts 312°
2026-05-06 13:50 18.41556 118.48495 37945 ft 468 kts 312°
2026-05-06 13:50 18.46001 118.43486 37945 ft 467 kts 312°
2026-05-06 13:51 18.50413 118.38511 37947 ft 467 kts 312°
2026-05-06 13:51 18.54850 118.33503 37948 ft 467 kts 312°
2026-05-06 13:52 18.59284 118.28495 37947 ft 467 kts 312°
2026-05-06 13:52 18.63719 118.23481 37950 ft 467 kts 312°
2026-05-06 13:53 18.68151 118.18466 37948 ft 467 kts 312°
2026-05-06 13:53 18.72553 118.13481 37950 ft 467 kts 312°
2026-05-06 13:54 18.76982 118.08463 37948 ft 467 kts 311°
2026-05-06 13:54 18.81410 118.03440 37938 ft 467 kts 311°
2026-05-06 13:55 18.85829 117.98423 37954 ft 466 kts 311°
2026-05-06 13:55 18.90246 117.93404 37957 ft 466 kts 311°
2026-05-06 13:56 18.94666 117.88378 37957 ft 466 kts 311°
2026-05-06 13:56 18.99055 117.83381 37951 ft 466 kts 311°
2026-05-06 13:57 19.03469 117.78355 37960 ft 466 kts 311°
2026-05-06 13:57 19.07884 117.73321 37958 ft 466 kts 311°
2026-05-06 13:58 19.12290 117.68289 37943 ft 466 kts 311°
2026-05-06 13:58 19.16695 117.63254 37953 ft 466 kts 311°
2026-05-06 13:59 19.21067 117.58252 37964 ft 466 kts 311°
2026-05-06 13:59 19.25490 117.53187 37967 ft 465 kts 311°
2026-05-06 14:00 19.29858 117.48182 37954 ft 465 kts 311°
2026-05-06 14:00 19.34245 117.43150 37951 ft 465 kts 311°
2026-05-06 14:01 19.38631 117.38114 37949 ft 465 kts 311°
2026-05-06 14:01 19.43017 117.33076 37966 ft 464 kts 311°
2026-05-06 14:02 19.47396 117.28039 37963 ft 464 kts 311°
2026-05-06 14:02 19.51771 117.23005 37949 ft 464 kts 311°
2026-05-06 14:03 19.56143 117.17969 37956 ft 464 kts 311°
2026-05-06 14:03 19.60512 117.12931 37969 ft 464 kts 311°
2026-05-06 14:04 19.64852 117.07923 37958 ft 464 kts 311°
2026-05-06 14:04 19.69222 117.02877 37954 ft 464 kts 311°
2026-05-06 14:05 19.73590 116.97828 37961 ft 464 kts 311°
2026-05-06 14:05 19.77954 116.92778 37967 ft 464 kts 311°
2026-05-06 14:06 19.82314 116.87730 37962 ft 464 kts 311°
2026-05-06 14:06 19.86673 116.82678 37963 ft 463 kts 311°
2026-05-06 14:07 19.91031 116.77621 37964 ft 463 kts 311°
2026-05-06 14:07 19.95354 116.72602 37970 ft 463 kts 311°
2026-05-06 14:08 19.99540 116.67403 37963 ft 462 kts 305°
2026-05-06 14:08 20.02873 116.61580 37965 ft 461 kts 297°
2026-05-06 14:09 20.05800 116.55562 37969 ft 460 kts 297°
2026-05-06 14:09 20.08743 116.49508 37966 ft 461 kts 297°
2026-05-06 14:10 20.11706 116.43467 37965 ft 460 kts 297°
2026-05-06 14:10 20.14678 116.37427 37968 ft 460 kts 297°
2026-05-06 14:11 20.17654 116.31376 37965 ft 461 kts 297°
2026-05-06 14:11 20.20621 116.25333 37965 ft 461 kts 297°
2026-05-06 14:12 20.23585 116.19287 37964 ft 461 kts 297°
2026-05-06 14:12 20.26534 116.13267 37964 ft 461 kts 297°
2026-05-06 14:13 20.29497 116.07210 37966 ft 461 kts 297°
2026-05-06 14:13 20.32457 116.01157 37965 ft 461 kts 297°
2026-05-06 14:14 20.35427 115.95101 37966 ft 461 kts 297°
2026-05-06 14:14 20.38397 115.89044 37968 ft 461 kts 297°
2026-05-06 14:15 20.41366 115.82978 37970 ft 461 kts 297°
2026-05-06 14:15 20.44310 115.76954 37969 ft 461 kts 297°
2026-05-06 14:16 20.47271 115.70888 37972 ft 461 kts 297°
2026-05-06 14:16 20.50231 115.64819 37966 ft 461 kts 297°
2026-05-06 14:17 20.53194 115.58744 37971 ft 461 kts 298°
2026-05-06 14:17 20.56761 115.53065 37884 ft 463 kts 307°
2026-05-06 14:18 20.58891 115.50435 37123 ft 473 kts 313°
2026-05-06 14:18 20.61219 115.47975 36585 ft 468 kts 314°
2026-05-06 14:18 20.63555 115.45572 36067 ft 463 kts 315°
2026-05-06 14:18 20.65870 115.43202 35559 ft 459 kts 315°
2026-05-06 14:19 20.68131 115.40873 35022 ft 456 kts 314°
2026-05-06 14:19 20.70398 115.38521 34485 ft 453 kts 314°
2026-05-06 14:19 20.72648 115.36174 33950 ft 451 kts 314°
2026-05-06 14:19 20.74878 115.33838 33362 ft 448 kts 314°
2026-05-06 14:20 20.77094 115.31514 32831 ft 445 kts 314°
2026-05-06 14:20 20.79299 115.29200 32298 ft 441 kts 314°
2026-05-06 14:20 20.81478 115.26913 31796 ft 438 kts 314°
2026-05-06 14:20 20.83644 115.24639 31282 ft 435 kts 313°
2026-05-06 14:21 20.85797 115.22378 30779 ft 432 kts 313°
2026-05-06 14:21 20.87936 115.20131 30270 ft 430 kts 313°
2026-05-06 14:21 20.90064 115.17896 29715 ft 428 kts 313°
2026-05-06 14:21 20.92176 115.15669 29163 ft 425 kts 313°
2026-05-06 14:22 20.94270 115.13460 28634 ft 421 kts 313°
2026-05-06 14:22 20.96351 115.11261 28122 ft 418 kts 313°
2026-05-06 14:22 20.98413 115.09082 27624 ft 415 kts 313°
2026-05-06 14:22 21.00461 115.06919 27134 ft 412 kts 313°
2026-05-06 14:23 21.02494 115.04771 26652 ft 409 kts 313°
2026-05-06 14:23 21.04487 115.02668 26173 ft 407 kts 313°
2026-05-06 14:23 21.06499 115.00546 25693 ft 405 kts 313°
2026-05-06 14:23 21.08502 114.98432 25200 ft 403 kts 313°
2026-05-06 14:24 21.10496 114.96327 24726 ft 402 kts 313°
2026-05-06 14:24 21.12485 114.94225 24247 ft 401 kts 313°
2026-05-06 14:24 21.14466 114.92130 23784 ft 400 kts 312°
2026-05-06 14:24 21.16446 114.90036 23247 ft 399 kts 312°
2026-05-06 14:25 21.18421 114.87946 22758 ft 397 kts 313°
2026-05-06 14:25 21.20378 114.85874 22257 ft 395 kts 313°
2026-05-06 14:25 21.22327 114.83810 21794 ft 392 kts 313°
2026-05-06 14:25 21.24264 114.81758 21328 ft 389 kts 313°
2026-05-06 14:26 21.26163 114.79746 20870 ft 387 kts 313°
2026-05-06 14:26 21.28073 114.77721 20431 ft 385 kts 313°
2026-05-06 14:26 21.29970 114.75708 19967 ft 382 kts 313°
2026-05-06 14:26 21.31858 114.73705 19510 ft 381 kts 313°
2026-05-06 14:27 21.33733 114.71713 19052 ft 379 kts 313°
2026-05-06 14:27 21.35607 114.69723 18583 ft 378 kts 313°
2026-05-06 14:27 21.37473 114.67741 18111 ft 377 kts 313°
2026-05-06 14:27 21.39333 114.65764 17608 ft 375 kts 313°
2026-05-06 14:28 21.41176 114.63804 17143 ft 372 kts 313°
2026-05-06 14:28 21.43005 114.61858 16692 ft 369 kts 313°
2026-05-06 14:28 21.44823 114.59923 16237 ft 366 kts 313°
2026-05-06 14:28 21.46624 114.58007 15804 ft 363 kts 313°
2026-05-06 14:29 21.48479 114.56202 15350 ft 358 kts 323°
2026-05-06 14:29 21.50721 114.55049 14935 ft 357 kts 340°
2026-05-06 14:29 21.53063 114.54297 14521 ft 355 kts 341°
2026-05-06 14:29 21.55418 114.53522 14090 ft 353 kts 340°
2026-05-06 14:30 21.57761 114.52723 13650 ft 351 kts 340°
2026-05-06 14:30 21.60069 114.51912 13187 ft 344 kts 337°
2026-05-06 14:30 21.62110 114.50648 12854 ft 334 kts 317°
2026-05-06 14:30 21.63718 114.48903 12618 ft 326 kts 311°
2026-05-06 14:31 21.65253 114.47108 12389 ft 326 kts 311°
2026-05-06 14:31 21.66780 114.45307 12154 ft 325 kts 311°
2026-05-06 14:31 21.68307 114.43512 11913 ft 324 kts 311°
2026-05-06 14:31 21.69828 114.41731 11682 ft 322 kts 311°
2026-05-06 14:32 21.71342 114.39968 11446 ft 320 kts 311°
2026-05-06 14:32 21.72850 114.38215 11226 ft 318 kts 311°
2026-05-06 14:32 21.74335 114.36494 11001 ft 318 kts 311°
2026-05-06 14:32 21.75840 114.34750 10774 ft 318 kts 311°
2026-05-06 14:33 21.77338 114.33014 10552 ft 314 kts 311°
2026-05-06 14:33 21.78811 114.31308 10320 ft 309 kts 311°
2026-05-06 14:33 21.80257 114.29632 10117 ft 302 kts 311°
2026-05-06 14:33 21.81674 114.27991 9956 ft 294 kts 310°
2026-05-06 14:34 21.83047 114.26399 9710 ft 289 kts 310°
2026-05-06 14:34 21.84405 114.24824 9467 ft 284 kts 311°
2026-05-06 14:34 21.85739 114.23277 9252 ft 279 kts 310°
2026-05-06 14:34 21.86612 114.22263 9122 ft 278 kts 310°
2026-05-06 14:35 21.88353 114.20244 8853 ft 277 kts 310°
2026-05-06 14:35 21.89541 114.18766 8655 ft 272 kts 303°
2026-05-06 14:35 21.90226 114.17609 8524 ft 270 kts 298°
2026-05-06 14:35 21.91421 114.15267 8269 ft 269 kts 296°
2026-05-06 14:36 21.92005 114.14088 8153 ft 269 kts 296°
2026-05-06 14:36 21.92866 114.12356 7963 ft 269 kts 296°
2026-05-06 14:36 21.93757 114.10580 7769 ft 270 kts 296°
2026-05-06 14:36 21.94657 114.08804 7570 ft 270 kts 296°
2026-05-06 14:37 21.95561 114.07030 7385 ft 271 kts 297°
2026-05-06 14:37 21.96474 114.05244 7188 ft 272 kts 297°
2026-05-06 14:37 21.97688 114.02880 6926 ft 273 kts 297°
2026-05-06 14:37 21.98310 114.01672 6791 ft 273 kts 297°
2026-05-06 14:38 21.99233 113.99879 6593 ft 274 kts 297°
2026-05-06 14:38 22.00158 113.98083 6399 ft 274 kts 297°
2026-05-06 14:38 22.01071 113.96310 6186 ft 273 kts 296°
2026-05-06 14:38 22.01986 113.94535 5979 ft 269 kts 297°
2026-05-06 14:39 22.02889 113.92784 5768 ft 266 kts 297°
2026-05-06 14:39 22.03782 113.91049 5579 ft 264 kts 297°
2026-05-06 14:39 22.04669 113.89326 5391 ft 262 kts 297°
2026-05-06 14:39 22.05553 113.87608 5209 ft 262 kts 297°
2026-05-06 14:40 22.06434 113.85896 5016 ft 261 kts 297°
2026-05-06 14:40 22.07320 113.84174 4829 ft 263 kts 297°
2026-05-06 14:40 22.08208 113.82446 4641 ft 265 kts 297°
2026-05-06 14:40 22.09107 113.80695 4447 ft 267 kts 297°
2026-05-06 14:41 22.10008 113.78942 4238 ft 268 kts 298°
2026-05-06 14:41 22.11161 113.77402 4025 ft 266 kts 324°
2026-05-06 14:41 22.12767 113.76517 3868 ft 256 kts 335°
2026-05-06 14:41 22.14380 113.75730 3669 ft 252 kts 335°
2026-05-06 14:42 22.15962 113.74947 3471 ft 249 kts 335°
2026-05-06 14:42 22.17520 113.74171 3286 ft 244 kts 335°
2026-05-06 14:42 22.19046 113.73412 3099 ft 238 kts 335°
2026-05-06 14:42 22.20505 113.72685 2929 ft 231 kts 335°
2026-05-06 14:43 22.21949 113.71974 2756 ft 221 kts 340°
2026-05-06 14:43 22.23396 113.71804 2626 ft 203 kts 15°
2026-05-06 14:43 22.24641 113.72413 2486 ft 194 kts 39°
2026-05-06 14:43 22.25671 113.73312 2416 ft 190 kts 44°
2026-05-06 14:44 22.26679 113.74250 2220 ft 191 kts 44°
2026-05-06 14:44 22.27645 113.75215 2073 ft 185 kts 56°
2026-05-06 14:44 22.28215 113.76406 1998 ft 176 kts 68°
2026-05-06 14:45 22.29134 113.78820 1694 ft 161 kts 74°
2026-05-06 14:45 22.29483 113.79898 1586 ft 147 kts 75°
2026-05-06 14:45 22.29811 113.80923 1387 ft 143 kts 73°
2026-05-06 14:45 22.30137 113.81942 1228 ft 145 kts 75°
2026-05-06 14:46 22.30468 113.82972 1021 ft 144 kts 73°
2026-05-06 14:46 22.30790 113.83978 817 ft 143 kts 73°
2026-05-06 14:46 22.31111 113.84928 662 ft 140 kts 72°
2026-05-06 14:46 22.31425 113.85917 510 ft 139 kts 75°
2026-05-06 14:47 22.31733 113.86922 326 ft 141 kts 69°
2026-05-06 14:47 22.32057 113.87909 157 ft 137 kts 73°
2026-05-06 14:47 22.32366 113.88872 46 ft 131 kts 73°
2026-05-06 14:47 22.32637 113.89699 42 ft 97 kts 71°
2026-05-06 14:48 22.32809 113.90229 42 ft 53 kts 70°
2026-05-06 14:48 22.32884 113.90461 41 ft 21 kts 71°
2026-05-06 14:48 22.32928 113.90612 42 ft 21 kts 78°
2026-05-06 14:48 22.32939 113.90771 42 ft 21 kts 92°
2026-05-06 14:49 22.32918 113.90926 43 ft 13 kts 101°
2026-05-06 14:49 22.32901 113.91024 43 ft 13 kts 98°
2026-05-06 14:49 22.32916 113.91122 43 ft 13 kts 68°
2026-05-06 14:49 22.32949 113.91216 43 ft 13 kts 71°
2026-05-06 14:50 22.32979 113.91311 43 ft 13 kts 71°
2026-05-06 14:50 22.33008 113.91406 43 ft 13 kts 71°
2026-05-06 14:50 22.33038 113.91501 43 ft 13 kts 71°
2026-05-06 14:50 22.33068 113.91596 43 ft 13 kts 71°
2026-05-06 14:51 22.33098 113.91691 42 ft 13 kts 71°
2026-05-06 14:51 22.33129 113.91785 42 ft 13 kts 70°
2026-05-06 14:51 22.33163 113.91884 42 ft 15 kts 70°
2026-05-06 14:51 22.33199 113.91994 42 ft 13 kts 71°
2026-05-06 14:52 22.33207 113.92081 42 ft 12 kts 111°
2026-05-06 14:52 22.33141 113.92129 42 ft 12 kts 159°
2026-05-06 14:52 22.33062 113.92160 42 ft 13 kts 159°
2026-05-06 14:52 22.32966 113.92199 42 ft 17 kts 159°
2026-05-06 14:53 22.32844 113.92245 42 ft 20 kts 161°
2026-05-06 14:53 22.32709 113.92293 42 ft 21 kts 162°
2026-05-06 14:53 22.32574 113.92344 42 ft 21 kts 161°
2026-05-06 14:53 22.32439 113.92395 42 ft 21 kts 161°
2026-05-06 14:54 22.32322 113.92439 42 ft 14 kts 160°
2026-05-06 14:54 22.32232 113.92473 42 ft 12 kts 160°
2026-05-06 14:54 22.32168 113.92525 42 ft 12 kts 102°
2026-05-06 14:54 22.32191 113.92615 42 ft 13 kts 69°
2026-05-06 14:55 22.32200 113.92666 42 ft 0 kts 90°
2026-05-06 14:55 22.32199 113.92674 42 ft 2 kts 100°
2026-05-06 14:55 22.32167 113.92700 42 ft 10 kts 163°
2026-05-06 14:55 22.32090 113.92724 41 ft 13 kts 164°
2026-05-06 14:56 22.31999 113.92755 40 ft 14 kts 162°
2026-05-06 14:56 22.31911 113.92788 42 ft 12 kts 159°
2026-05-06 14:56 22.31835 113.92822 40 ft 12 kts 155°
2026-05-06 14:56 22.31822 113.92905 42 ft 13 kts 71°
2026-05-06 14:57 22.31854 113.93005 42 ft 15 kts 71°
2026-05-06 14:57 22.31865 113.93093 42 ft 12 kts 109°
2026-05-06 14:57 22.31812 113.93141 42 ft 9 kts 161°
2026-05-06 14:57 22.31749 113.93163 42 ft 10 kts 161°
2026-05-06 14:58 22.31692 113.93190 42 ft 8 kts 142°
2026-05-06 14:58 22.31675 113.93221 42 ft 3 kts 102°
2026-05-06 14:58 22.31677 113.93245 42 ft 4 kts 78°
2026-05-06 14:58 22.31684 113.93273 42 ft 3 kts 72°
2026-05-06 14:59 22.31689 113.93287 40 ft 2 kts 72°
2026-05-06 14:59 22.31692 113.93299 42 ft 0 kts 72°